DHK027 KMIA-EGNX

Flight info

Callsign DHK027
Flight time N/A
Altitude 35000
Route FOLZZ3 SUMRS/M083F350 M204 FLUPS DCT NOSID/M083F370 DCT SOORY DCT 42N050W 44N040W 46N030W 48N020W 48N015W DCT OMOKO DCT GUNSO/N0479F390 DCT TISMO DCT BOFUM Q37 MALUD
Aircraft B77L/H-SDE1E2E3FGHIJ2J3J4J5M1RWXY/LB1D1

Departure

Time 2026-05-05 10:22
Airport Miami International Airport (KMIA)

Arrival

Time N/A
Airport East Midlands Airport (EGNX)
Time Latitude Longitude Altitude Speed Heading
2026-05-05 10:03 25.79203 -80.29322 19 ft 0 kts 209°
2026-05-05 10:14 25.79212 -80.29316 19 ft 4 kts 209°
2026-05-05 10:14 25.79233 -80.29303 21 ft 4 kts 213°
2026-05-05 10:14 25.79248 -80.29288 21 ft 4 kts 253°
2026-05-05 10:14 25.79248 -80.29267 19 ft 4 kts 297°
2026-05-05 10:15 25.79237 -80.29245 19 ft 1 kts 298°
2026-05-05 10:18 25.79243 -80.29258 19 ft 10 kts 300°
2026-05-05 10:18 25.79307 -80.29372 19 ft 19 kts 301°
2026-05-05 10:18 25.79373 -80.29497 19 ft 19 kts 298°
2026-05-05 10:19 25.79438 -80.29623 19 ft 19 kts 301°
2026-05-05 10:19 25.79504 -80.29749 19 ft 19 kts 300°
2026-05-05 10:19 25.79569 -80.29875 19 ft 19 kts 299°
2026-05-05 10:19 25.79641 -80.29997 19 ft 19 kts 301°
2026-05-05 10:20 25.79704 -80.30124 19 ft 19 kts 298°
2026-05-05 10:20 25.79761 -80.30255 19 ft 19 kts 304°
2026-05-05 10:20 25.79801 -80.30291 19 ft 4 kts 347°
2026-05-05 10:20 25.79861 -80.30270 19 ft 14 kts 37°
2026-05-05 10:21 25.79940 -80.30204 19 ft 14 kts 47°
2026-05-05 10:21 25.79965 -80.30099 20 ft 14 kts 77°
2026-05-05 10:21 25.80042 -80.30037 17 ft 14 kts 26°
2026-05-05 10:21 25.80081 -80.29938 17 ft 16 kts 90°
2026-05-05 10:22 25.80090 -80.29710 18 ft 67 kts 88°
2026-05-05 10:22 25.80135 -80.28794 41 ft 166 kts 84°
2026-05-05 10:22 25.80205 -80.27407 910 ft 189 kts 86°
2026-05-05 10:22 25.80270 -80.25933 2246 ft 196 kts 90°
2026-05-05 10:23 25.80030 -80.24358 2677 ft 222 kts 116°
2026-05-05 10:23 25.79202 -80.22793 2884 ft 252 kts 122°
2026-05-05 10:23 25.78287 -80.21022 3474 ft 271 kts 120°
2026-05-05 10:23 25.77377 -80.19150 4362 ft 279 kts 118°
2026-05-05 10:24 25.76447 -80.17232 5277 ft 285 kts 120°
2026-05-05 10:24 25.75483 -80.15309 6173 ft 292 kts 120°
2026-05-05 10:24 25.74548 -80.13297 6960 ft 296 kts 109°
2026-05-05 10:24 25.74334 -80.11019 7709 ft 303 kts 78°
2026-05-05 10:25 25.75141 -80.08891 8547 ft 300 kts 50°
2026-05-05 10:25 25.76480 -80.07114 9343 ft 303 kts 45°
2026-05-05 10:25 25.77889 -80.05338 10177 ft 309 kts 44°
2026-05-05 10:25 25.79350 -80.03515 10709 ft 327 kts 44°
2026-05-05 10:26 25.80930 -80.01549 10909 ft 356 kts 45°
2026-05-05 10:26 25.82634 -79.99419 11120 ft 384 kts 45°
2026-05-05 10:26 25.84452 -79.97132 11537 ft 402 kts 45°
2026-05-05 10:26 25.86327 -79.94756 12156 ft 415 kts 46°
2026-05-05 10:27 25.88247 -79.92314 12878 ft 424 kts 46°
2026-05-05 10:27 25.90201 -79.89825 13631 ft 431 kts 46°
2026-05-05 10:27 25.92196 -79.87282 14278 ft 440 kts 45°
2026-05-05 10:27 25.94194 -79.84734 14947 ft 446 kts 45°
2026-05-05 10:28 25.96269 -79.82086 15705 ft 450 kts 46°
2026-05-05 10:28 25.98336 -79.79448 16422 ft 455 kts 46°
2026-05-05 10:28 26.00399 -79.76815 17085 ft 461 kts 46°
2026-05-05 10:28 26.02514 -79.74114 17754 ft 466 kts 46°
2026-05-05 10:29 26.04660 -79.71372 18392 ft 472 kts 46°
2026-05-05 10:29 26.06827 -79.68600 18998 ft 476 kts 46°
2026-05-05 10:29 26.09004 -79.65816 19614 ft 479 kts 46°
2026-05-05 10:29 26.11186 -79.62994 20238 ft 482 kts 47°
2026-05-05 10:30 26.13229 -79.60007 20828 ft 488 kts 52°
2026-05-05 10:30 26.15167 -79.56891 21418 ft 492 kts 53°
2026-05-05 10:30 26.17096 -79.53707 22004 ft 496 kts 53°
2026-05-05 10:30 26.19046 -79.50519 22575 ft 501 kts 52°
2026-05-05 10:31 26.21046 -79.47309 23026 ft 507 kts 52°
2026-05-05 10:31 26.23059 -79.44124 23549 ft 511 kts 51°
2026-05-05 10:31 26.25117 -79.40884 24020 ft 514 kts 52°
2026-05-05 10:31 26.27192 -79.37612 24510 ft 517 kts 51°
2026-05-05 10:32 26.29439 -79.34499 24874 ft 515 kts 40°
2026-05-05 10:32 26.32259 -79.32106 25230 ft 507 kts 26°
2026-05-05 10:32 26.35283 -79.30050 25607 ft 511 kts 25°
2026-05-05 10:32 26.38341 -79.28004 26089 ft 514 kts 25°
2026-05-05 10:33 26.41412 -79.25926 26583 ft 517 kts 25°
2026-05-05 10:33 26.44477 -79.23812 27087 ft 520 kts 26°
2026-05-05 10:33 26.47545 -79.21658 27551 ft 524 kts 26°
2026-05-05 10:33 26.50650 -79.19452 27902 ft 530 kts 26°
2026-05-05 10:34 26.53727 -79.17252 28317 ft 534 kts 26°
2026-05-05 10:34 26.56864 -79.15001 28762 ft 536 kts 26°
2026-05-05 10:34 26.60005 -79.12745 29208 ft 539 kts 26°
2026-05-05 10:34 26.63168 -79.10474 29608 ft 542 kts 26°
2026-05-05 10:35 26.66349 -79.08193 30010 ft 544 kts 26°
2026-05-05 10:35 26.69543 -79.05902 30443 ft 544 kts 26°
2026-05-05 10:35 26.72728 -79.03617 30824 ft 545 kts 26°
2026-05-05 10:35 26.75924 -79.01323 31202 ft 547 kts 26°
2026-05-05 10:36 26.79031 -78.99092 31529 ft 549 kts 26°
2026-05-05 10:36 26.82243 -78.96783 31932 ft 548 kts 27°
2026-05-05 10:36 26.85441 -78.94482 32405 ft 547 kts 27°
2026-05-05 10:36 26.88654 -78.92168 32822 ft 547 kts 27°
2026-05-05 10:37 26.91856 -78.89862 33225 ft 547 kts 27°
2026-05-05 10:37 26.93980 -78.88331 33490 ft 547 kts 27°
2026-05-05 10:37 26.97180 -78.86025 33877 ft 547 kts 27°
2026-05-05 10:37 27.00377 -78.83719 34215 ft 548 kts 27°
2026-05-05 10:38 27.03586 -78.81403 34582 ft 548 kts 27°
2026-05-05 10:38 27.06792 -78.79086 34947 ft 547 kts 26°
2026-05-05 10:38 27.13224 -78.74438 34993 ft 551 kts 26°
2026-05-05 10:39 27.19604 -78.69811 34987 ft 545 kts 26°
2026-05-05 10:39 27.25978 -78.65191 34986 ft 545 kts 26°
2026-05-05 10:40 27.29079 -78.62708 34990 ft 554 kts 37°
2026-05-05 10:40 27.31696 -78.59503 35024 ft 559 kts 48°
2026-05-05 10:40 27.36439 -78.52507 35003 ft 564 kts 50°
2026-05-05 10:41 27.41164 -78.45431 35003 ft 567 kts 50°
2026-05-05 10:41 27.46003 -78.38412 35001 ft 568 kts 49°
2026-05-05 10:42 27.53357 -78.27931 34997 ft 568 kts 49°
2026-05-05 10:43 27.58246 -78.20947 35059 ft 567 kts 49°
2026-05-05 10:43 27.63110 -78.13967 35009 ft 565 kts 49°
2026-05-05 10:44 27.67944 -78.07013 35004 ft 562 kts 49°
2026-05-05 10:44 27.72756 -78.00081 35005 ft 559 kts 49°
2026-05-05 10:45 27.77449 -77.93313 34989 ft 558 kts 49°
2026-05-05 10:45 27.82243 -77.86390 35017 ft 560 kts 49°
2026-05-05 10:46 27.87053 -77.79432 35021 ft 564 kts 49°
2026-05-05 10:46 27.91885 -77.72430 35024 ft 565 kts 49°
2026-05-05 10:47 27.96729 -77.65398 35029 ft 567 kts 49°
2026-05-05 10:47 28.01572 -77.58355 35012 ft 567 kts 50°
2026-05-05 10:48 28.06420 -77.51297 35024 ft 568 kts 50°
2026-05-05 10:48 28.11267 -77.44223 35075 ft 569 kts 50°
2026-05-05 10:49 28.16115 -77.37139 35043 ft 569 kts 50°
2026-05-05 10:49 28.20965 -77.30041 35035 ft 569 kts 50°
2026-05-05 10:50 28.25802 -77.22949 35035 ft 568 kts 50°
2026-05-05 10:50 28.30595 -77.15914 35046 ft 567 kts 51°
2026-05-05 10:51 28.35413 -77.08824 35108 ft 568 kts 51°
2026-05-05 10:51 28.40251 -77.01695 35057 ft 570 kts 51°
2026-05-05 10:52 28.45018 -76.94660 35064 ft 572 kts 51°
2026-05-05 10:52 28.49873 -76.87483 35063 ft 573 kts 51°
2026-05-05 10:53 28.54721 -76.80306 35060 ft 572 kts 52°
2026-05-05 10:53 28.59564 -76.73118 35111 ft 572 kts 52°
2026-05-05 10:54 28.64381 -76.65958 35070 ft 573 kts 52°
2026-05-05 10:54 28.69225 -76.58748 35065 ft 573 kts 52°
2026-05-05 10:55 28.74128 -76.51590 35075 ft 572 kts 49°
2026-05-05 10:55 28.79270 -76.44684 35069 ft 571 kts 48°
2026-05-05 10:56 28.84455 -76.37820 35150 ft 570 kts 49°
2026-05-05 10:56 28.89591 -76.30913 35088 ft 572 kts 49°
2026-05-05 10:57 28.94705 -76.23950 35086 ft 572 kts 49°
2026-05-05 10:57 28.99778 -76.17021 35084 ft 572 kts 49°
2026-05-05 10:58 29.04860 -76.10081 35084 ft 572 kts 50°
2026-05-05 10:58 29.09962 -76.03104 35138 ft 572 kts 50°
2026-05-05 10:59 29.14985 -75.96224 35095 ft 573 kts 50°
2026-05-05 10:59 29.20061 -75.89260 35099 ft 573 kts 50°
2026-05-05 11:00 29.25162 -75.82250 35097 ft 573 kts 50°
2026-05-05 11:00 29.30255 -75.75242 35084 ft 572 kts 50°
2026-05-05 11:01 29.35355 -75.68209 35145 ft 573 kts 50°
2026-05-05 11:01 29.40456 -75.61159 35110 ft 574 kts 51°
2026-05-05 11:02 29.45557 -75.54101 35111 ft 574 kts 50°
2026-05-05 11:02 29.50653 -75.47038 35108 ft 574 kts 51°
2026-05-05 11:03 29.55707 -75.40020 35089 ft 574 kts 51°
2026-05-05 11:03 29.60798 -75.32939 35142 ft 575 kts 51°
2026-05-05 11:04 29.65895 -75.25835 35129 ft 577 kts 51°
2026-05-05 11:04 29.71013 -75.18691 35123 ft 578 kts 51°
2026-05-05 11:05 29.76118 -75.11553 35118 ft 578 kts 51°
2026-05-05 11:05 29.81209 -75.04415 35241 ft 568 kts 47°
2026-05-05 11:05 29.83674 -75.00945 35162 ft 550 kts 46°
2026-05-05 11:06 29.85989 -74.97686 35106 ft 534 kts 46°
2026-05-05 11:06 29.88312 -74.94416 35111 ft 521 kts 46°
2026-05-05 11:06 29.90612 -74.91187 35137 ft 523 kts 46°
2026-05-05 11:07 29.95296 -74.84620 35145 ft 537 kts 46°
2026-05-05 11:07 30.00052 -74.77924 35133 ft 541 kts 46°
2026-05-05 11:08 30.04811 -74.71195 35120 ft 541 kts 47°
2026-05-05 11:08 30.09530 -74.64512 35132 ft 540 kts 46°
2026-05-05 11:09 30.14268 -74.57795 35128 ft 539 kts 46°
2026-05-05 11:09 30.19000 -74.51077 35129 ft 538 kts 46°
2026-05-05 11:10 30.23711 -74.44378 35131 ft 536 kts 47°
2026-05-05 11:10 30.28415 -74.37679 35135 ft 536 kts 47°
2026-05-05 11:11 30.32975 -74.31174 35136 ft 537 kts 47°
2026-05-05 11:11 30.37675 -74.24456 35139 ft 537 kts 47°
2026-05-05 11:12 30.42382 -74.17716 35143 ft 538 kts 47°
2026-05-05 11:12 30.47088 -74.10966 35139 ft 539 kts 47°
2026-05-05 11:13 30.51798 -74.04199 35149 ft 539 kts 47°
2026-05-05 11:13 30.56416 -73.97554 35146 ft 540 kts 47°
2026-05-05 11:14 30.61200 -73.90833 35150 ft 539 kts 45°
2026-05-05 11:14 30.66139 -73.84283 35150 ft 539 kts 45°
2026-05-05 11:15 30.71094 -73.77743 35154 ft 539 kts 45°
2026-05-05 11:15 30.76017 -73.71166 35189 ft 539 kts 46°
2026-05-05 11:16 30.80885 -73.64612 35147 ft 539 kts 46°
2026-05-05 11:16 30.85781 -73.58003 35159 ft 539 kts 46°
2026-05-05 11:17 30.90672 -73.51392 35169 ft 539 kts 46°
2026-05-05 11:17 30.95564 -73.44773 35163 ft 539 kts 46°
2026-05-05 11:18 31.00451 -73.38150 35197 ft 539 kts 46°
2026-05-05 11:18 31.05346 -73.31505 35171 ft 539 kts 46°
2026-05-05 11:19 31.10222 -73.24874 35163 ft 538 kts 47°
2026-05-05 11:19 31.15096 -73.18234 35171 ft 538 kts 47°
2026-05-05 11:20 31.19938 -73.11627 35173 ft 539 kts 47°
2026-05-05 11:20 31.24814 -73.04962 35178 ft 539 kts 47°
2026-05-05 11:21 31.29610 -72.98394 35177 ft 539 kts 47°
2026-05-05 11:21 31.34467 -72.91732 35162 ft 538 kts 47°
2026-05-05 11:22 31.39327 -72.85054 35178 ft 539 kts 47°
2026-05-05 11:22 31.44184 -72.78367 35216 ft 539 kts 47°
2026-05-05 11:23 31.49049 -72.71662 35184 ft 540 kts 48°
2026-05-05 11:23 31.53903 -72.64954 35175 ft 539 kts 48°
2026-05-05 11:24 31.58718 -72.58291 35153 ft 538 kts 48°
2026-05-05 11:24 31.63557 -72.51583 35175 ft 538 kts 48°
2026-05-05 11:25 31.68396 -72.44866 35195 ft 539 kts 48°
2026-05-05 11:25 31.72417 -72.39272 35184 ft 540 kts 48°
2026-05-05 11:26 31.77258 -72.32526 35177 ft 539 kts 48°
2026-05-05 11:26 31.82097 -72.25772 35179 ft 539 kts 48°
2026-05-05 11:27 31.86924 -72.19024 35178 ft 539 kts 49°
2026-05-05 11:27 31.91752 -72.12261 35187 ft 540 kts 49°
2026-05-05 11:28 31.96582 -72.05483 35180 ft 540 kts 49°
2026-05-05 11:28 32.01333 -71.98805 35182 ft 539 kts 49°
2026-05-05 11:29 32.06145 -71.92029 35182 ft 539 kts 49°
2026-05-05 11:29 32.10958 -71.85239 35178 ft 539 kts 49°
2026-05-05 11:30 32.15778 -71.78427 35432 ft 543 kts 49°
2026-05-05 11:30 32.18200 -71.75000 35733 ft 544 kts 49°
2026-05-05 11:30 32.20629 -71.71559 36003 ft 545 kts 49°
2026-05-05 11:30 32.23061 -71.68110 36209 ft 548 kts 49°
2026-05-05 11:31 32.25502 -71.64647 36391 ft 550 kts 49°
2026-05-05 11:31 32.27955 -71.61163 36642 ft 551 kts 49°
2026-05-05 11:31 32.30402 -71.57684 36960 ft 550 kts 49°
2026-05-05 11:31 32.32843 -71.54208 37348 ft 548 kts 49°
2026-05-05 11:32 32.35246 -71.50785 37570 ft 549 kts 49°
2026-05-05 11:32 32.37722 -71.47256 37840 ft 549 kts 49°
2026-05-05 11:32 32.40118 -71.43835 38333 ft 543 kts 49°
2026-05-05 11:32 32.42519 -71.40405 38859 ft 538 kts 49°
2026-05-05 11:33 32.44904 -71.36994 39103 ft 538 kts 49°
2026-05-05 11:33 32.49715 -71.30109 39200 ft 546 kts 49°
2026-05-05 11:34 32.54603 -71.23102 39217 ft 554 kts 49°
2026-05-05 11:34 32.59520 -71.16034 39210 ft 556 kts 49°
2026-05-05 11:35 32.64433 -71.08959 39205 ft 555 kts 49°
2026-05-05 11:35 32.69303 -71.01933 39201 ft 553 kts 49°
2026-05-05 11:36 32.74129 -70.94957 39231 ft 551 kts 49°
2026-05-05 11:36 32.78990 -70.87918 39182 ft 549 kts 49°
2026-05-05 11:37 32.83826 -70.80904 39194 ft 547 kts 49°
2026-05-05 11:37 32.88642 -70.73903 39199 ft 546 kts 50°
2026-05-05 11:38 32.93451 -70.66901 39210 ft 546 kts 50°
2026-05-05 11:38 32.98253 -70.59895 39209 ft 546 kts 50°
2026-05-05 11:39 33.03019 -70.52927 39195 ft 546 kts 50°
2026-05-05 11:39 33.07850 -70.45853 39219 ft 547 kts 50°
2026-05-05 11:40 33.12625 -70.38845 39212 ft 549 kts 50°
2026-05-05 11:40 33.17441 -70.31766 39217 ft 551 kts 50°
2026-05-05 11:41 33.22271 -70.24650 39215 ft 552 kts 50°
2026-05-05 11:41 33.27103 -70.17519 39192 ft 552 kts 50°
2026-05-05 11:42 33.31934 -70.10374 39220 ft 552 kts 50°
2026-05-05 11:42 33.36763 -70.03219 39225 ft 553 kts 50°
2026-05-05 11:43 33.41542 -69.96124 39222 ft 554 kts 50°
2026-05-05 11:43 33.46377 -69.88932 39220 ft 553 kts 50°
2026-05-05 11:44 33.51203 -69.81740 39220 ft 553 kts 50°
2026-05-05 11:44 33.55987 -69.74594 39242 ft 553 kts 50°
2026-05-05 11:45 33.60801 -69.67391 39234 ft 553 kts 50°
2026-05-05 11:45 33.65612 -69.60177 39228 ft 554 kts 50°
2026-05-05 11:46 33.70417 -69.52959 39231 ft 553 kts 51°
2026-05-05 11:46 33.75219 -69.45730 39253 ft 553 kts 51°
2026-05-05 11:47 33.80021 -69.38487 39243 ft 554 kts 51°
2026-05-05 11:47 33.84814 -69.31243 39229 ft 554 kts 51°
2026-05-05 11:48 33.92017 -69.20328 39237 ft 554 kts 51°
2026-05-05 11:48 33.96776 -69.13099 39243 ft 554 kts 51°
2026-05-05 11:49 34.01554 -69.05826 39241 ft 555 kts 51°
2026-05-05 11:49 34.06286 -68.98607 39240 ft 556 kts 51°
2026-05-05 11:50 34.11072 -68.91272 39238 ft 556 kts 52°
2026-05-05 11:50 34.15563 -68.83659 39217 ft 556 kts 55°
2026-05-05 11:51 34.19923 -68.75929 39227 ft 556 kts 56°
2026-05-05 11:51 34.24250 -68.68251 39240 ft 556 kts 56°
2026-05-05 11:52 34.28625 -68.60543 39236 ft 556 kts 55°
2026-05-05 11:52 34.33016 -68.52823 39230 ft 557 kts 55°
2026-05-05 11:53 34.37406 -68.45091 39237 ft 557 kts 55°
2026-05-05 11:53 34.41791 -68.37346 39249 ft 557 kts 56°
2026-05-05 11:54 34.46171 -68.29588 39239 ft 558 kts 56°
2026-05-05 11:54 34.50546 -68.21822 39269 ft 558 kts 56°
2026-05-05 11:55 34.54924 -68.14033 39242 ft 558 kts 56°
2026-05-05 11:55 34.59293 -68.06244 39247 ft 558 kts 56°
2026-05-05 11:56 34.63587 -67.98573 39251 ft 559 kts 56°
2026-05-05 11:56 34.67958 -67.90746 39268 ft 559 kts 56°
2026-05-05 11:57 34.72292 -67.82970 39261 ft 560 kts 56°
2026-05-05 11:57 34.76653 -67.75127 39259 ft 560 kts 56°
2026-05-05 11:58 34.81011 -67.67273 39249 ft 560 kts 56°
2026-05-05 11:58 34.85363 -67.59411 39251 ft 560 kts 56°
2026-05-05 11:59 34.89712 -67.51537 39234 ft 560 kts 56°
2026-05-05 11:59 34.94056 -67.43656 39247 ft 560 kts 56°
2026-05-05 12:00 34.98396 -67.35763 39257 ft 560 kts 56°
2026-05-05 12:00 35.02725 -67.27875 39259 ft 560 kts 56°
2026-05-05 12:01 35.07059 -67.19959 39250 ft 561 kts 56°
2026-05-05 12:01 35.11387 -67.12036 39253 ft 561 kts 56°
2026-05-05 12:02 35.15716 -67.04092 39263 ft 561 kts 56°
2026-05-05 12:02 35.19956 -66.96295 39264 ft 561 kts 56°
2026-05-05 12:03 35.24276 -66.88333 39243 ft 562 kts 56°
2026-05-05 12:03 35.28597 -66.80352 39252 ft 562 kts 56°
2026-05-05 12:04 35.32914 -66.72358 39264 ft 562 kts 56°
2026-05-05 12:04 35.37226 -66.64356 39265 ft 563 kts 56°
2026-05-05 12:05 35.41537 -66.56334 39237 ft 564 kts 56°
2026-05-05 12:05 35.45847 -66.48301 39258 ft 564 kts 56°
2026-05-05 12:06 35.50152 -66.40257 39266 ft 564 kts 56°
2026-05-05 12:06 35.54426 -66.32252 39296 ft 564 kts 56°
2026-05-05 12:07 35.58754 -66.24127 39256 ft 565 kts 56°